SCP
1 1 1 1 1 1 1 1 1 1 0 0 0 1 0 0 0 0 0 0 0 0 0 0 0 0 0 0 0 0 0 0 0 0 0 0 0 0 0 0 0 0 1
1 1 1 1 1 1 1 1 1 1 1 1 0 0 0 0 0 0 0 0 0 0 0 0 0 0 0 0 0 0 0 0 0 0 0 0 0 0 0 0 0 0 0
1 1 1 1 0 0 1 1 1 1 1 1 0 0 0 0 0 0 0 0 0 0 0 0 0 0 0 0 0 0 0 0 0 0 0 0 0 0 0 0 0 0 0
0 0 0 0 0 0 0 1 1 1 1 1 1 0 0 0 0 0 0 0 0 0 0 0 0 0 0 0 0 0 0 0 0 0 0 0 0 0 0 0 0 0 0
0 0 0 0 0 0 0 1 1 1 1 1 1 1 1 0 0 0 0 0 0 0 0 0 0 0 0 0 0 0 0 0 0 0 0 0 0 0 0 0 0 0 0
0 0 0 0 0 0 1 1 1 1 1 1 1 1 1 0 0 0 0 0 0 0 0 0 0 0 0 0 0 0 0 0 0 0 0 0 0 0 0 0 0 0 0
0 0 0 0 0 0 1 1 1 1 1 1 1 1 1 0 0 0 0 0 0 0 0 0 0 0 0 0 0 0 0 0 0 0 0 0 0 0 0 0 0 0 0
0 0 0 0 1 1 1 1 1 1 1 1 1 1 0 0 0 0 0 0 0 0 0 0 0 0 0 0 0 0 0 0 0 0 0 0 0 0 0 0 0 0 0
0 0 0 0 0 1 1 1 1 1 1 1 0 0 0 0 0 0 0 0 0 0 0 0 0 0 0 0 0 0 0 0 0 0 0 0 0 0 0 0 0 0 0
0 0 0 0 0 1 1 1 1 1 1 0 0 0 0 0 0 0 0 0 0 0 0 0 0 0 0 0 0 0 0 0 0 0 0 0 0 0 0 0 0 0 0
0 0 0 0 0 0 1 1 1 1 0 0 0 0 0 0 0 0 0 0 0 0 0 0 0 0 0 0 0 0 0 0 0 0 0 0 0 0 0 0 0 0 0
0 0 0 0 0 0 0 0 1 0 0 0 0 0 0 0 0 0 0 0 0 0 0 0 0 0 0 0 0 0 0 0 0 0 0 0 0 0 0 0 0 0 0
0 0 0 0 0 0 0 0 0 0 0 0 0 0 0 0 0 0 0 0 0 0 0 0 0 0 0 0 0 0 0 0 0 0 0 0 0 0 0 0 0 0 0
0 1 1 1 1 0 0 0 0 0 0 0 0 0 0 0 0 0 0 0 0 0 0 0 0 0 0 0 0 0 0 0 0 0 0 0 0 0 0 0 0 0 0
0 1 1 1 1 1 0 0 0 0 0 0 0 0 0 0 0 0 0 0 0 0 0 0 0 0 0 0 0 0 0 0 0 0 0 0 0 0 0 0 0 0 0
0 1 1 1 1 1 0 0 0 0 0 0 0 0 0 0 0 0 0 0 0 0 0 0 0 0 0 0 0 0 0 0 0 0 0 0 0 0 0 0 0 0 0
0 1 1 1 1 1 1 0 0 0 0 0 0 0 0 0 0 0 0 0 0 0 0 0 0 0 0 0 0 0 0 0 0 0 0 0 0 0 0 0 0 0 0
0 1 1 1 1 1 1 1 0 0 0 0 0 0 0 0 0 0 0 0 1 1 1 1 0 0 0 0 0 0 0 0 0 0 0 0 0 0 0 0 0 0 0
0 0 0 0 1 1 1 1 0 0 0 0 0 0 0 0 0 0 1 1 1 1 1 1 0 0 0 0 0 0 0 0 0 0 0 0 0 0 0 0 0 0 0
0 0 0 1 1 1 1 1 1 0 0 0 0 0 0 0 1 1 1 1 1 1 1 0 0 0 0 0 0 0 0 0 0 0 0 0 0 0 0 0 0 0 0
0 1 1 1 1 1 1 1 1 1 1 1 0 1 1 1 1 1 1 1 1 1 1 1 1 1 0 0 0 0 0 0 0 0 0 0 0 0 0 0 0 0 0
1 1 1 1 2 2 2 2 1 1 1 1 1 1 1 1 1 1 1 1 1 1 1 1 0 0 0 0 0 0 0 0 0 0 0 0 0 0 0 0 0 0 0
1 1 1 2 2 2 2 2 2 1 1 1 1 1 1 1 1 1 1 1 1 1 1 0 0 0 0 0 0 0 0 0 0 0 0 0 0 0 0 0 0 0 0
1 1 1 2 2 2 2 2 2 2 2 1 1 1 1 1 1 1 1 1 1 1 0 0 0 0 0 0 0 0 0 0 0 0 0 0 0 0 0 0 0 0 0
1 1 1 2 2 2 2 2 2 2 2 1 1 1 1 1 1 1 1 1 0 0 0 0 0 0 0 0 0 0 0 0 0 0 0 0 0 0 0 0 0 0 0
1 1 1 1 1 2 2 2 2 2 2 1 1 1 0 0 1 1 1 0 0 0 0 0 0 0 0 0 0 0 0 0 0 0 0 0 0 0 0 0 0 0 0
Wind_Speed
10 9 9 9 9 8 7 6 6 5 2 1 1 1 1 0 0 2 4 3 2 3 2 3 4 3 3 3 4 4 5 4 4 4 5 5 7 6 6 5 4 4 5
10 9 9 9 10 9 7 7 6 6 3 2 1 1 0 1 1 1 2 2 1 1 3 3 3 4 4 4 4 3 3 4 5 4 4 5 5 3 3 3 4 4 2
11 11 10 10 10 9 8 7 7 6 4 3 1 1 0 2 1 1 1 2 1 1 1 2 3 3 4 4 4 3 4 4 4 4 3 3 3 5 3 3 1 1 1
12 12 12 11 11 10 9 7 7 5 4 3 1 2 2 2 2 1 0 1 1 2 2 2 2 2 3 5 5 4 4 4 4 4 3 3 3 3 4 4 3 2 2
13 13 13 11 10 10 10 8 7 6 4 3 2 2 3 2 2 3 3 2 3 3 3 3 1 1 3 4 4 4 4 4 4 4 4 5 3 3 4 5 5 4 2
13 13 12 10 9 9 8 9 8 6 5 4 3 2 2 2 3 4 4 3 2 2 2 2 1 1 2 3 4 4 5 4 4 4 4 5 4 4 3 4 5 5 3
12 12 11 11 9 8 8 8 9 7 6 5 4 2 1 2 4 5 4 2 2 2 2 2 1 2 3 4 4 4 5 5 5 4 4 4 4 4 4 4 5 6 5
11 11 10 9 9 9 8 8 9 7 6 5 3 2 1 2 3 2 3 3 3 3 2 2 2 3 4 5 4 4 5 5 5 6 5 4 5 4 4 4 4 5 5
13 12 12 10 10 9 8 7 8 6 5 3 3 3 3 3 3 2 3 3 2 4 4 3 4 4 5 5 5 4 5 5 5 5 6 5 4 4 4 4 4 4 6
12 12 10 10 9 8 7 7 7 6 4 3 4 3 3 3 3 3 3 3 3 4 4 5 5 5 5 5 5 5 6 6 6 5 6 5 5 5 4 4 4 4 5
12 11 9 9 9 9 9 7 7 6 5 4 3 1 2 2 2 3 4 4 4 4 4 5 5 5 6 6 5 6 7 7 7 7 7 7 6 5 5 5 4 4 5
10 11 11 10 9 8 9 8 8 7 6 5 4 3 3 3 4 5 4 3 4 4 5 5 5 6 6 6 6 7 7 6 7 7 7 7 7 6 6 5 6 5 5
8 9 10 10 8 7 7 8 7 7 6 6 5 5 4 4 4 4 4 4 4 4 5 5 5 6 6 6 6 6 7 7 7 7 7 7 7 7 6 6 6 5 7
8 9 9 8 7 7 6 6 6 5 6 5 4 4 4 4 4 4 4 4 4 5 5 6 6 6 7 7 7 6 6 6 7 7 7 7 8 8 7 7 6 6 6
10 9 9 9 8 7 7 6 5 5 4 4 4 4 4 3 3 4 4 4 5 6 5 5 6 6 7 7 5 4 7 6 6 7 7 8 10 10 8 8 6 6 5
8 10 10 10 9 8 8 7 6 6 5 5 4 4 3 4 4 4 5 5 5 5 5 6 7 7 8 3 2 4 6 6 7 8 8 9 10 12 14 15 13 11 8
6 9 10 9 9 8 8 7 7 6 6 6 5 5 4 4 4 5 4 4 5 5 5 6 6 7 7 8 8 8 6 8 8 8 8 10 11 9 6 9 14 14 16
5 7 9 9 10 9 9 7 8 7 7 7 7 6 5 5 4 4 5 4 4 5 5 6 7 7 8 8 9 9 8 9 9 9 9 9 9 11 8 7 7 7 9
4 6 7 9 9 10 10 9 8 8 8 8 7 6 5 5 4 5 5 4 4 5 6 7 7 7 7 8 9 9 6 7 9 9 10 9 9 10 9 7 7 7 7
4 5 7 7 8 8 9 9 8 8 8 7 6 5 4 5 5 5 5 5 5 6 7 7 7 7 7 8 10 11 7 7 7 7 7 10 9 7 6 6 7 8 7
4 5 5 5 6 7 7 7 7 7 6 5 5 5 5 5 6 6 5 5 6 7 7 8 8 8 9 9 11 12 7 7 7 7 6 4 4 5 7 7 7 8 8
4 5 4 5 5 6 6 6 6 5 4 4 5 5 5 6 6 5 5 6 7 7 8 8 9 7 7 8 9 12 13 9 7 7 7 4 3 5 7 7 9 11 8
2 3 3 4 5 5 5 6 5 4 4 5 5 5 5 5 5 6 7 7 7 7 7 6 6 5 3 3 8 11 12 13 8 7 9 10 10 10 9 14 15 11 8
1 2 3 3 4 5 6 5 4 4 4 5 5 5 6 7 7 7 7 7 7 6 6 5 5 4 4 2 1 3 5 8 9 8 9 12 14 13 12 11 9 8 9
4 2 1 1 2 3 3 4 3 4 5 5 5 6 8 8 7 8 8 8 7 7 7 5 5 5 5 2 2 2 4 4 3 4 6 8 8 7 7 7 7 7 7
6 5 3 2 2 1 2 3 3 3 4 5 6 7 7 7 7 6 7 11 13 12 14 13 10 7 8 6 7 7 7 6 4 4 7 8 8 8 7 6 6 7 7
Wind_Direction
139 138 140 140 136 136 140 143 136 137 151 141 147 120 109 83 126 128 108 91 40 21 336 325 349 325 322 338 328 332 321 308 288 286 288 280 263 243 228 224 228 234 235
147 149 154 153 149 150 151 148 153 157 171 138 116 150 80 286 280 83 126 130 97 1 314 24 339 340 337 311 295 297 297 303 312 311 304 300 293 307 262 214 209 219 223
161 163 167 163 159 162 168 171 166 163 170 157 197 264 176 255 266 87 127 109 56 314 319 322 313 329 315 318 337 315 308 305 306 297 299 306 326 335 323 332 298 195 205
167 172 172 174 172 173 175 167 164 165 161 180 224 266 271 293 320 311 83 86 292 266 267 273 294 315 313 313 310 354 333 312 304 303 297 283 302 307 318 320 318 275 235
173 175 177 177 178 180 177 169 161 161 167 192 229 258 294 325 352 6 354 336 271 242 226 226 229 284 288 299 320 320 313 309 305 311 314 309 298 262 264 291 306 301 272
174 176 177 173 179 181 173 168 160 165 175 196 224 231 279 318 323 318 299 289 282 264 222 216 170 262 286 306 308 300 291 285 293 298 301 302 298 293 289 292 298 296 290
173 174 176 173 178 180 174 165 159 164 176 193 210 221 261 294 269 260 279 300 309 316 21 27 29 307 298 288 279 279 276 279 281 281 277 284 291 294 295 294 295 297 297
173 173 177 178 179 179 172 162 155 162 177 192 186 175 230 268 286 359 355 326 312 317 343 323 284 272 272 278 281 281 274 269 266 269 269 273 277 278 279 278 286 292 292
176 179 180 181 179 175 162 156 148 156 174 182 158 188 214 243 295 321 281 281 306 304 328 325 298 278 270 266 267 264 269 274 271 268 267 257 266 270 266 265 265 272 282
179 179 176 176 165 153 141 139 140 149 162 182 195 212 191 215 237 255 278 292 289 288 289 281 284 283 278 270 260 261 261 259 258 254 259 264 265 270 274 271 264 259 265
178 172 164 152 141 142 145 144 145 155 173 197 193 210 227 254 265 261 260 263 267 274 275 275 275 276 275 271 264 262 264 262 261 263 262 256 254 258 268 273 271 265 260
174 164 152 143 149 158 159 160 166 173 182 190 183 197 212 230 245 261 268 273 271 269 272 271 273 275 277 274 271 269 273 270 267 264 263 264 263 253 252 260 267 269 269
162 153 145 149 157 164 164 166 174 180 183 180 181 196 210 227 240 255 266 269 270 273 276 276 275 275 275 274 273 270 269 269 271 269 266 263 262 262 253 252 258 266 269
158 155 147 153 160 161 159 166 181 180 182 179 190 202 213 227 241 252 259 264 268 272 271 270 271 272 273 273 271 272 274 274 273 271 268 265 260 258 256 256 251 255 263
163 161 159 158 162 164 165 177 182 177 180 182 206 215 217 225 238 248 254 257 262 272 275 277 277 275 274 272 281 288 287 291 291 285 278 272 266 257 253 257 254 260 261
174 169 167 165 170 173 178 182 183 177 173 192 215 220 223 234 242 248 251 255 259 268 272 275 278 278 282 292 278 270 291 289 285 282 279 279 272 259 245 242 243 244 251
179 172 171 170 171 176 179 181 181 178 182 194 213 222 225 234 243 260 266 269 271 272 272 272 273 274 275 264 249 245 261 273 274 274 276 278 279 284 267 246 241 242 243
180 170 172 171 173 177 180 182 185 184 192 200 210 219 225 234 239 249 259 262 268 273 275 274 274 272 272 261 239 238 249 266 267 266 265 265 268 273 272 272 262 249 245
173 164 176 178 175 178 178 179 192 193 199 207 209 216 222 232 241 249 255 261 263 267 269 272 268 268 268 253 232 228 256 264 269 268 269 267 264 262 254 255 260 262 260
157 162 176 173 168 174 173 178 194 200 208 211 208 210 216 228 242 250 255 262 263 267 271 270 269 272 273 257 231 219 248 267 274 275 273 272 268 261 240 247 258 263 265
154 162 170 167 164 165 167 183 199 207 209 210 208 209 215 223 234 240 242 250 259 265 268 272 271 266 261 252 229 216 234 259 276 284 287 288 279 251 240 246 257 263 274
164 170 165 156 152 157 168 190 207 209 204 209 217 220 220 236 247 238 243 245 250 259 260 261 264 261 254 242 227 213 219 241 265 275 281 286 278 258 254 252 255 260 266
152 157 160 158 157 162 174 201 209 207 214 220 225 229 235 235 243 249 252 252 248 252 258 263 269 271 269 238 217 211 220 231 243 264 278 287 277 268 260 251 250 252 250
72 112 146 173 180 182 193 209 208 203 217 227 229 233 239 242 241 238 248 253 254 256 262 269 277 286 287 280 199 213 230 237 243 257 273 271 262 253 255 261 247 233 236
27 52 84 178 196 190 202 206 212 209 220 232 241 247 248 248 246 243 241 244 244 244 248 260 267 274 279 266 187 266 286 297 328 321 287 278 272 260 250 245 243 236 230
22 19 10 340 307 252 226 215 211 218 231 246 250 256 259 258 256 256 258 240 237 239 231 233 241 254 254 246 235 243 253 261 266 275 271 273 273 270 266 260 256 246 239